Printer-friendly version

IAU Minor Planet Center

Minor Planet Center

MPEC 2006-C05 : 2006 BQ147

The following Minor Planet Electronic Circular may be linked-to from your own Web pages, but must not otherwise be redistributed electronically.


Read MPEC 2006-C04 Read MPEC 2006-C06


M.P.E.C. 2006-C05                                Issued 2006 Feb. 2, 20:20 UT

     The Minor Planet Electronic Circulars contain information on unusual
         minor planets and routine data on comets.  They are published
   on behalf of Commission 20 of the International Astronomical Union by the
          Minor Planet Center, Smithsonian Astrophysical Observatory,
                          Cambridge, MA 02138, U.S.A.

                  Supported in part by the Brinson Foundation
                  Supported in part by the TABASGO Foundation
             Prepared using the Tamkin Foundation Computer Network

                              MPC@CFA.HARVARD.EDU
          URL http://cfa-www.harvard.edu/iau/mpc.html  ISSN 1523-6714

                                  2006 BQ147

Observations:
     K06BE7Q* C2006 01 31.48933 03 44 14.92 -18 04 28.7          20.3 V EC005E12
     K06BE7Q  C2006 01 31.49911 03 44 15.79 -18 03 52.5          20.3 V EC005E12
     K06BE7Q  C2006 01 31.50889 03 44 16.76 -18 03 15.1          20.0 V EC005E12
     K06BE7Q  C2006 01 31.51866 03 44 17.55 -18 02 37.6          19.7 V EC005E12
     K06BE7Q  C2006 01 31.53072 03 44 18.65 -18 01 52.9          19.8 V EC005E12
     K06BE7Q  C2006 01 31.54640 03 44 20.09 -18 00 53.3          19.3 V EC005E12
     K06BE7Q  C2006 01 31.56228 03 44 21.54 -17 59 52.2          19.3 V EC005E12
     K06BE7Q  C2006 02 01.08177 03 45 12.31 -17 27 46.8          20.8 R EC005H36
     K06BE7Q  C2006 02 01.09600 03 45 13.48 -17 26 55.2          20.8 R EC005H36
     K06BE7Q  C2006 02 01.10946 03 45 14.69 -17 26 05.0          20.7 R EC005H36
     K06BE7Q  C2006 02 01.12536 03 45 16.34 -17 25 04.6          19.6 V EC005703
     K06BE7Q  C2006 02 01.13050 03 45 16.81 -17 24 45.6          19.6 V EC005703
     K06BE7Q  C2006 02 01.13567 03 45 17.17 -17 24 24.1          19.2 V EC005703
     K06BE7Q 4C2006 02 01.23303 03 45 26.79 -17 18 20.8          19.3 R EC005F65
     K06BE7Q 4C2006 02 01.23925 03 45 27.34 -17 17 57.8          19.3 R EC005F65
     K06BE7Q 4C2006 02 01.24659 03 45 28.00 -17 17 30.3          19.3 R EC005F65
     K06BE7Q  C2006 02 02.12197 03 46 51.96 -16 23 33.1          19.6 V EC005G96
     K06BE7Q  C2006 02 02.12884 03 46 52.57 -16 23 07.8          19.7 V EC005G96
     K06BE7Q 5C2006 02 02.13287 03 46 53.08 -16 22 53.2          19.8 R EC005673
     K06BE7Q  C2006 02 02.13574 03 46 53.22 -16 22 42.5          19.4 V EC005G96
     K06BE7Q  C2006 02 02.14135 03 46 53.70 -16 22 21.9          19.6 R EC005651
     K06BE7Q  C2006 02 02.14247 03 46 53.80 -16 22 17.0          19.6 R EC005651
     K06BE7Q  C2006 02 02.14263 03 46 53.83 -16 22 17.1          19.6 V EC005G96
     K06BE7Q  C2006 02 02.14359 03 46 53.84 -16 22 13.8          20.4 R EC005651
     K06BE7Q 5C2006 02 02.14896 03 46 54.52 -16 21 54.0                 EC005673
     K06BE7Q  C2006 02 02.15796 03 46 55.16 -16 21 19.7          20.3 R EC005651
     K06BE7Q  C2006 02 02.15909 03 46 55.25 -16 21 16.7          20.2 R EC005651
     K06BE7Q  C2006 02 02.16020 03 46 55.40 -16 21 12.1          20.3 R EC005651
     K06BE7Q  C2006 02 02.53253 03 47 30.69 -15 58 08.0          19.5 V EC005E12
     K06BE7Q  C2006 02 02.53363 03 47 30.84 -15 58 03.4          19.2 V EC005E12
     K06BE7Q  C2006 02 02.53474 03 47 30.91 -15 58 00.0          19.0 V EC005E12

Observer details:
651 Grasslands Observatory, Tucson.  Observer J. E. McGaha.  0.62-m f/5.1
    Newtonian reflector + CCD.
673 Table Mountain Observatory, Wrightwood.  Observer J. Young.  0.6-m f/16
    Cassegrain + CCD.
703 Catalina Sky Survey.  Observer R. A. Kowalski.  Measurers E. C. Beshore,
    E. J. Christensen, G. J. Garradd, A. D. Grauer, R. E. Hill, R. A. Kowalski,
    S. M. Larson, R. H. McNaught.  0.68-m Schmidt + CCD.
E12 Siding Spring Survey.  Observer G. J. Garradd.  Measurers E. C. Beshore,
    E. J. Christensen, G. J. Garradd, A. D. Grauer, R. E. Hill, R. A. Kowalski,
    S. M. Larson, R. H. McNaught.  0.5-m Uppsala Schmidt + CCD.
F65 Haleakala-Faulkes Telescope North.  Observer J. Bedient.  2.0-m
    Ritchey-Chretien + CCD.
G96 Mt. Lemmon Survey.  Observer R. Hill.  Measurers E. C. Beshore,
    E. J. Christensen, G. J. Garradd, A. D. Grauer, R. E. Hill, R. A. Kowalski,
    S. M. Larson, R. H. McNaught.  1.5-m reflector + CCD.
H36 Sandlot Observatory, Scranton.  Observer G. Hug.  0.30-m
    Schmidt-Cassegrain + CCD.

Orbital elements:
2006 BQ147                                               Earth MOID = 0.0651 AU
Epoch 2006 Mar. 6.0 TT = JDT 2453800.5                  MPC
M 198.13546              (2000.0)            P               Q
n   1.33710173     Peri.  152.80205     +0.52269415     +0.82347901
a   0.8160055      Node   147.27613     -0.83741801     +0.54443887
e   0.4259737      Incl.   24.08609     -0.15975575     -0.15958897
P   0.74           H   19.1           G   0.15           U   9
Residuals in seconds of arc
060131 E12  0.3+  0.2+    060201 703  0.0   0.4-    060202 G96  0.1+  0.3-
060131 E12  0.1+  0.6-    060201 703  1.4-  1.8+    060202 651  0.9-  0.7-
060131 E12  1.2+  0.2-    060201 F65  0.0   0.3-    060202 673  0.1+  0.0
060131 E12  0.2-  0.3+    060201 F65  0.0   0.5-    060202 651  0.5-  0.5+
060131 E12  0.3-  0.6-    060201 F65  0.2+  0.4-    060202 651  0.7-  0.7-
060131 E12  0.4-  0.4-    060202 G96  0.1-  0.2-    060202 651  0.1+  0.2-
060131 E12  0.7-  0.6+    060202 G96  0.2-  0.2-    060202 E12  0.1-  0.1+
060201 H36  1.6+  1.4+    060202 673  0.1+  0.0     060202 E12  0.6+  0.7+
060201 H36  0.1+  0.2-    060202 G96  0.2+  0.3-    060202 E12  0.2+  0.0
060201 H36  0.1+  0.3-    060202 651  0.0   0.5-
060201 703  0.1-  0.2-    060202 651  0.0   0.3+

Ephemeris:
2006 BQ147               a,e,i = 0.82, 0.43, 24                  q = 0.4684
Date    TT    R. A. (2000) Decl.     Delta      r     Elong.  Phase     V
2006 01 25    03 33.90   -25 09.5    0.465    1.131    95.8    60.0    19.9
2006 02 04    03 49.88   -14 29.8    0.511    1.151    95.3    58.5    20.1
2006 02 14    04 06.22   -05 18.1    0.564    1.162    92.9    58.1    20.3
2006 02 24    04 23.30   +02 29.5    0.623    1.163    89.3    58.3    20.5
2006 03 06    04 41.39   +09 04.0    0.684    1.155    85.0    58.8    20.7
2006 03 16    05 00.52   +14 37.6    0.743    1.138    80.4    59.5    20.9
2006 03 26    05 20.68   +19 21.8    0.796    1.111    75.6    60.4    21.0
2006 04 05    05 41.83   +23 26.5    0.840    1.075    70.8    61.6    21.1
2006 04 15    06 03.83   +26 59.6    0.872    1.029    66.1    63.1    21.1
2006 04 25    06 26.38   +30 08.0    0.889    0.973    61.4    65.2    21.1

Gareth V. Williams           (C) Copyright 2006 MPC           M.P.E.C. 2006-C05

Read MPEC 2006-C04 Read MPEC 2006-C06


Our Web policy. Index to the CBAT/MPC/ICQ pages.


Valid HTML 4.01!